Location: Aalen
(48.8330°N, 10.1000°E)
Time: 11:50:45
(UTC+02:00)

S-56A Canister/Altair - Pass Details

Date: 07 August 2021
Orbit: 632 x 2500 km, 38.9° (Epoch: 21 September)

Event Time Altitude Azimuth Distance (km) Brightness Sun altitude
Rises 13:49:41 0° 219° (SW) 4,736 12.0 57.1°
Reaches altitude 10° 13:52:45 10° 211° (SSW) 3,998 11.9 57.0°
Maximum altitude 14:02:39 38° 149° (SSE) 2,957 11.5 56.6°
Drops below altitude 10° 14:15:19 10° 89° (E) 5,116 11.7 55.9°
Sets 14:19:51 0° 83° (E) 6,180 12.0 55.6°
